Time,TemperatureF,DewpointF,PressureIn,WindDirection,WindDirectionDegrees,WindSpeedMPH,WindSpeedGustMPH,Humidity,HourlyPrecipIn,Conditions,Clouds,dailyrainin,SolarRadiationWatts/m^2,SoftwareType,DateUTC
2013-05-14 00:00:00,60.5,51.0,29.97,South,184,0.0,0.0,71,0.00,,,0.00,0,Wunderground v.1.15,2013-05-14 07:00:00,
2013-05-14 00:10:00,60.3,50.9,29.97,South,184,0.0,0.0,71,0.00,,,0.00,0,Wunderground v.1.15,2013-05-14 07:10:00,
2013-05-14 00:20:00,60.0,50.9,29.97,SE,144,2.0,3.0,72,0.00,,,0.00,0,Wunderground v.1.15,2013-05-14 07:20:00,
2013-05-14 00:30:00,59.7,51.0,29.97,SSE,160,4.0,4.0,73,0.00,,,0.00,0,Wunderground v.1.15,2013-05-14 07:30:00,
2013-05-14 00:40:00,59.5,50.8,29.98,SE,145,3.0,5.0,73,0.00,,,0.00,0,Wunderground v.1.15,2013-05-14 07:40:00,
2013-05-14 00:50:00,59.4,50.7,29.97,South,169,4.0,4.0,73,0.00,,,0.00,0,Wunderground v.1.15,2013-05-14 07:50:00,
2013-05-14 01:00:00,59.3,50.6,29.97,SE,132,4.0,4.0,73,0.00,,,0.00,0,Wunderground v.1.15,2013-05-14 08:00:00,
2013-05-14 01:10:00,59.3,50.6,29.98,SSE,148,2.0,2.0,73,0.00,,,0.00,0,Wunderground v.1.15,2013-05-14 08:10:00,
2013-05-14 01:20:00,59.0,50.4,29.97,SSE,149,4.0,6.0,73,0.00,,,0.00,0,Wunderground v.1.15,2013-05-14 08:20:00,
2013-05-14 01:30:00,59.0,50.4,29.97,SSE,158,3.0,3.0,73,0.00,,,0.00,0,Wunderground v.1.15,2013-05-14 08:30:00,
2013-05-14 01:40:00,58.7,50.1,29.97,SSE,163,3.0,3.0,73,0.00,,,0.00,0,Wunderground v.1.15,2013-05-14 08:40:00,
2013-05-14 01:50:00,58.5,49.9,29.97,SSE,168,3.0,3.0,73,0.00,,,0.00,0,Wunderground v.1.15,2013-05-14 08:50:00,
2013-05-14 02:00:00,58.4,49.8,29.96,SSE,148,1.0,1.0,73,0.00,,,0.00,0,Wunderground v.1.15,2013-05-14 09:00:00,
2013-05-14 02:10:00,58.2,49.6,29.96,SSE,148,0.0,1.0,73,0.00,,,0.00,0,Wunderground v.1.15,2013-05-14 09:10:00,
2013-05-14 02:20:00,58.1,49.5,29.96,SSE,148,1.0,4.0,73,0.00,,,0.00,0,Wunderground v.1.15,2013-05-14 09:20:00,
2013-05-14 02:30:00,57.9,49.7,29.96,SSE,149,1.0,1.0,74,0.00,,,0.00,0,Wunderground v.1.15,2013-05-14 09:30:00,
2013-05-14 02:40:00,57.8,49.2,29.95,SSE,149,1.0,1.0,73,0.00,,,0.00,0,Wunderground v.1.15,2013-05-14 09:40:00,
2013-05-14 02:50:00,57.5,49.3,29.95,SSE,149,0.0,0.0,74,0.00,,,0.00,0,Wunderground v.1.15,2013-05-14 09:50:00,
2013-05-14 03:00:00,57.4,49.2,29.95,SSE,149,0.0,0.0,74,0.00,,,0.00,0,Wunderground v.1.15,2013-05-14 10:00:00,
2013-05-14 03:10:00,57.3,49.1,29.95,SSE,161,2.0,7.0,74,0.00,,,0.00,0,Wunderground v.1.15,2013-05-14 10:10:00,
2013-05-14 03:20:00,57.2,49.3,29.95,SSE,148,2.0,2.0,75,0.00,,,0.00,0,Wunderground v.1.15,2013-05-14 10:20:00,
2013-05-14 03:30:00,57.1,49.2,29.95,SW,228,0.0,0.0,75,0.00,,,0.00,0,Wunderground v.1.15,2013-05-14 10:30:00,
2013-05-14 03:40:00,57.0,49.2,29.95,SSW,192,0.0,0.0,75,0.00,,,0.00,0,Wunderground v.1.15,2013-05-14 10:40:00,
2013-05-14 03:50:00,56.8,49.0,29.95,SSW,192,0.0,0.0,75,0.00,,,0.00,0,Wunderground v.1.15,2013-05-14 10:50:00,
2013-05-14 04:00:00,56.7,48.9,29.95,South,182,0.0,2.0,75,0.00,,,0.00,0,Wunderground v.1.15,2013-05-14 11:00:00,
2013-05-14 04:10:00,56.4,49.3,29.95,SE,143,3.0,3.0,77,0.00,,,0.00,0,Wunderground v.1.15,2013-05-14 11:10:00,
2013-05-14 04:20:00,56.0,49.2,29.96,SE,140,3.0,3.0,78,0.00,,,0.00,0,Wunderground v.1.15,2013-05-14 11:20:00,
2013-05-14 04:30:00,55.8,49.4,29.96,SSE,153,3.0,3.0,79,0.00,,,0.00,0,Wunderground v.1.15,2013-05-14 11:30:00,
2013-05-14 04:40:00,55.7,49.3,29.96,SSE,154,1.0,1.0,79,0.00,,,0.00,0,Wunderground v.1.15,2013-05-14 11:40:00,
2013-05-14 04:50:00,55.5,49.4,29.96,SSE,165,1.0,2.0,80,0.00,,,0.00,0,Wunderground v.1.15,2013-05-14 11:50:00,
2013-05-14 05:00:00,55.3,49.2,29.96,SE,140,2.0,4.0,80,0.00,,,0.00,0,Wunderground v.1.15,2013-05-14 12:00:00,
2013-05-14 05:10:00,55.1,49.4,29.96,SSE,153,2.0,2.0,81,0.00,,,0.00,0,Wunderground v.1.15,2013-05-14 12:10:00,
2013-05-14 05:20:00,54.9,49.2,29.96,SSE,163,3.0,3.0,81,0.00,,,0.00,0,Wunderground v.1.15,2013-05-14 12:20:00,
2013-05-14 05:30:00,54.7,49.3,29.96,SE,138,4.0,8.0,82,0.00,,,0.00,0,Wunderground v.1.15,2013-05-14 12:30:00,
2013-05-14 05:40:00,54.5,49.1,29.96,SE,146,2.0,4.0,82,0.00,,,0.00,0,Wunderground v.1.15,2013-05-14 12:40:00,
2013-05-14 05:50:00,54.4,49.3,29.96,SE,136,2.0,2.0,83,0.00,,,0.00,0,Wunderground v.1.15,2013-05-14 12:50:00,
2013-05-14 06:00:00,54.3,49.2,29.96,WSW,245,1.0,1.0,83,0.00,,,0.00,0,Wunderground v.1.15,2013-05-14 13:00:00,
2013-05-14 06:10:00,54.2,49.1,29.96,West,273,1.0,1.0,83,0.00,,,0.00,9,Wunderground v.1.15,2013-05-14 13:10:00,
2013-05-14 06:20:00,54.1,49.1,29.96,West,261,0.0,2.0,83,0.00,,,0.00,19,Wunderground v.1.15,2013-05-14 13:20:00,
2013-05-14 06:30:00,54.1,49.1,29.97,West,261,0.0,0.0,83,0.00,,,0.00,26,Wunderground v.1.15,2013-05-14 13:30:00,
2013-05-14 06:40:00,54.3,49.2,29.97,South,179,0.0,0.0,83,0.00,,,0.00,33,Wunderground v.1.15,2013-05-14 13:40:00,
2013-05-14 06:50:00,54.7,49.6,29.97,South,179,0.0,0.0,83,0.00,,,0.00,44,Wunderground v.1.15,2013-05-14 13:50:00,
2013-05-14 07:00:00,55.3,50.2,29.97,South,178,0.0,0.0,83,0.00,,,0.00,125,Wunderground v.1.15,2013-05-14 14:00:00,
2013-05-14 07:10:00,56.0,50.3,29.97,ESE,123,1.0,2.0,81,0.00,,,0.00,167,Wunderground v.1.15,2013-05-14 14:10:00,
2013-05-14 07:20:00,56.6,50.5,29.97,ESE,123,1.0,1.0,80,0.00,,,0.00,209,Wunderground v.1.15,2013-05-14 14:20:00,
2013-05-14 07:30:00,57.5,51.0,29.97,NNE,13,0.0,0.0,79,0.00,,,0.00,244,Wunderground v.1.15,2013-05-14 14:30:00,
2013-05-14 07:40:00,58.5,51.3,29.97,SE,136,2.0,3.0,77,0.00,,,0.00,272,Wunderground v.1.15,2013-05-14 14:40:00,
2013-05-14 07:50:00,59.0,50.7,29.98,SE,125,1.0,1.0,74,0.00,,,0.00,311,Wunderground v.1.15,2013-05-14 14:50:00,
2013-05-14 08:00:00,60.4,51.7,29.97,SE,132,1.0,3.0,73,0.00,,,0.00,343,Wunderground v.1.15,2013-05-14 15:00:00,
2013-05-14 08:10:00,61.0,51.5,29.97,SE,142,1.0,2.0,71,0.00,,,0.00,362,Wunderground v.1.15,2013-05-14 15:10:00,
2013-05-14 08:20:00,61.4,51.5,29.97,SE,135,1.0,1.0,70,0.00,,,0.00,304,Wunderground v.1.15,2013-05-14 15:20:00,
2013-05-14 08:30:00,62.5,52.6,29.97,SE,135,0.0,0.0,70,0.00,,,0.00,485,Wunderground v.1.15,2013-05-14 15:30:00,
2013-05-14 08:40:00,63.6,52.4,29.97,SE,135,1.0,1.0,67,0.00,,,0.00,359,Wunderground v.1.15,2013-05-14 15:40:00,
2013-05-14 08:50:00,64.9,53.3,29.97,SE,135,1.0,1.0,66,0.00,,,0.00,482,Wunderground v.1.15,2013-05-14 15:50:00,
2013-05-14 09:00:00,66.4,53.8,29.97,SE,134,1.0,1.0,64,0.00,,,0.00,534,Wunderground v.1.15,2013-05-14 16:00:00,
2013-05-14 09:10:00,67.5,53.6,29.97,SE,134,0.0,0.0,61,0.00,,,0.00,568,Wunderground v.1.15,2013-05-14 16:10:00,
2013-05-14 09:20:00,68.6,54.6,29.98,ESE,117,0.0,0.0,61,0.00,,,0.00,603,Wunderground v.1.15,2013-05-14 16:20:00,
2013-05-14 09:30:00,69.6,54.2,29.98,WSW,258,0.0,0.0,58,0.00,,,0.00,629,Wunderground v.1.15,2013-05-14 16:30:00,
2013-05-14 09:40:00,70.1,55.1,29.98,WSW,243,1.0,3.0,59,0.00,,,0.00,656,Wunderground v.1.15,2013-05-14 16:40:00,
2013-05-14 09:50:00,70.3,54.8,29.98,West,259,1.0,1.0,58,0.00,,,0.00,686,Wunderground v.1.15,2013-05-14 16:50:00,
2013-05-14 10:00:00,71.1,56.0,29.98,NNE,13,1.0,1.0,59,0.00,,,0.00,715,Wunderground v.1.15,2013-05-14 17:00:00,
2013-05-14 10:10:00,71.8,55.7,29.97,NNE,24,1.0,1.0,57,0.00,,,0.00,737,Wunderground v.1.15,2013-05-14 17:10:00,
2013-05-14 10:20:00,72.8,56.7,29.98,NNW,342,0.0,1.0,57,0.00,,,0.00,763,Wunderground v.1.15,2013-05-14 17:20:00,
2013-05-14 10:30:00,73.5,55.8,29.98,SSE,152,1.0,1.0,54,0.00,,,0.00,789,Wunderground v.1.15,2013-05-14 17:30:00,
2013-05-14 10:40:00,74.5,56.8,29.98,West,265,1.0,2.0,54,0.00,,,0.00,810,Wunderground v.1.15,2013-05-14 17:40:00,
2013-05-14 10:50:00,74.7,56.4,29.98,NNW,346,1.0,1.0,53,0.00,,,0.00,830,Wunderground v.1.15,2013-05-14 17:50:00,
2013-05-14 11:00:00,74.8,56.0,29.98,North,360,0.0,0.0,52,0.00,,,0.00,846,Wunderground v.1.15,2013-05-14 18:00:00,
2013-05-14 11:10:00,75.2,55.3,29.98,North,355,1.0,1.0,50,0.00,,,0.00,867,Wunderground v.1.15,2013-05-14 18:10:00,
2013-05-14 11:20:00,75.9,55.4,29.98,NNE,18,0.0,0.0,49,0.00,,,0.00,888,Wunderground v.1.15,2013-05-14 18:20:00,
2013-05-14 11:30:00,76.3,55.2,29.98,NNE,18,1.0,1.0,48,0.00,,,0.00,898,Wunderground v.1.15,2013-05-14 18:30:00,
2013-05-14 11:40:00,77.1,55.9,29.98,NE,41,1.0,1.0,48,0.00,,,0.00,918,Wunderground v.1.15,2013-05-14 18:40:00,
2013-05-14 11:50:00,77.1,55.3,29.98,NNE,23,0.0,0.0,47,0.00,,,0.00,925,Wunderground v.1.15,2013-05-14 18:50:00,
2013-05-14 12:00:00,77.8,55.4,29.98,NE,40,1.0,1.0,46,0.00,,,0.00,937,Wunderground v.1.15,2013-05-14 19:00:00,
2013-05-14 12:10:00,77.9,56.6,29.98,SE,136,0.0,0.0,48,0.00,,,0.00,946,Wunderground v.1.15,2013-05-14 19:10:00,
2013-05-14 12:20:00,78.2,56.3,29.97,NNW,339,1.0,1.0,47,0.00,,,0.00,947,Wunderground v.1.15,2013-05-14 19:20:00,
2013-05-14 12:30:00,77.8,55.4,29.97,SSE,159,2.0,3.0,46,0.00,,,0.00,956,Wunderground v.1.15,2013-05-14 19:30:00,
2013-05-14 12:40:00,76.8,53.8,29.97,WNW,292,2.0,2.0,45,0.00,,,0.00,958,Wunderground v.1.15,2013-05-14 19:40:00,
2013-05-14 12:50:00,76.6,54.3,29.97,NNE,20,1.0,1.0,46,0.00,,,0.00,962,Wunderground v.1.15,2013-05-14 19:50:00,
2013-05-14 13:00:00,77.7,55.3,29.97,NW,322,1.0,1.0,46,0.00,,,0.00,969,Wunderground v.1.15,2013-05-14 20:00:00,
2013-05-14 13:10:00,78.3,54.6,29.97,North,355,1.0,1.0,44,0.00,,,0.00,977,Wunderground v.1.15,2013-05-14 20:10:00,
2013-05-14 13:20:00,79.3,54.9,29.96,North,5,1.0,1.0,43,0.00,,,0.00,972,Wunderground v.1.15,2013-05-14 20:20:00,
2013-05-14 13:30:00,79.4,55.0,29.96,NNE,32,1.0,1.0,43,0.00,,,0.00,963,Wunderground v.1.15,2013-05-14 20:30:00,
2013-05-14 13:40:00,79.0,53.9,29.96,NNE,28,1.0,1.0,42,0.00,,,0.00,962,Wunderground v.1.15,2013-05-14 20:40:00,
2013-05-14 13:50:00,79.5,53.7,29.96,WNW,287,1.0,3.0,41,0.00,,,0.00,960,Wunderground v.1.15,2013-05-14 20:50:00,
2013-05-14 14:00:00,79.4,54.3,29.96,NW,322,1.0,1.0,42,0.00,,,0.00,947,Wunderground v.1.15,2013-05-14 21:00:00,
2013-05-14 14:10:00,78.7,53.7,29.96,West,267,1.0,1.0,42,0.00,,,0.00,937,Wunderground v.1.15,2013-05-14 21:10:00,
2013-05-14 14:20:00,78.7,52.3,29.95,North,11,1.0,1.0,40,0.00,,,0.00,928,Wunderground v.1.15,2013-05-14 21:20:00,
2013-05-14 14:30:00,78.4,52.7,29.95,NNW,339,1.0,1.0,41,0.00,,,0.00,923,Wunderground v.1.15,2013-05-14 21:30:00,
2013-05-14 14:40:00,78.7,52.3,29.95,NNE,30,1.0,1.0,40,0.00,,,0.00,911,Wunderground v.1.15,2013-05-14 21:40:00,
2013-05-14 14:50:00,77.3,51.1,29.95,NE,38,1.0,1.0,40,0.00,,,0.00,765,Wunderground v.1.15,2013-05-14 21:50:00,
2013-05-14 15:00:00,78.4,52.1,29.95,NE,42,1.0,1.0,40,0.00,,,0.00,789,Wunderground v.1.15,2013-05-14 22:00:00,
2013-05-14 15:10:00,76.0,51.9,29.95,NNW,336,1.0,1.0,43,0.00,,,0.00,642,Wunderground v.1.15,2013-05-14 22:10:00,
2013-05-14 15:20:00,76.5,51.7,29.95,NE,38,1.0,1.0,42,0.00,,,0.00,729,Wunderground v.1.15,2013-05-14 22:20:00,
2013-05-14 15:30:00,77.0,51.5,29.95,NNE,32,1.0,1.0,41,0.00,,,0.00,696,Wunderground v.1.15,2013-05-14 22:30:00,
2013-05-14 15:40:00,77.5,51.3,29.95,NE,39,1.0,1.0,40,0.00,,,0.00,749,Wunderground v.1.15,2013-05-14 22:40:00,
2013-05-14 15:50:00,77.8,51.5,29.95,West,259,1.0,3.0,40,0.00,,,0.00,765,Wunderground v.1.15,2013-05-14 22:50:00,
2013-05-14 16:00:00,77.9,50.9,29.95,NE,34,1.0,1.0,39,0.00,,,0.00,744,Wunderground v.1.15,2013-05-14 23:00:00,
2013-05-14 16:10:00,78.4,51.4,29.95,NE,35,0.0,0.0,39,0.00,,,0.00,717,Wunderground v.1.15,2013-05-14 23:10:00,
2013-05-14 16:20:00,78.5,51.5,29.95,NNE,21,1.0,1.0,39,0.00,,,0.00,691,Wunderground v.1.15,2013-05-14 23:20:00,
2013-05-14 16:30:00,78.7,51.0,29.95,NNE,23,1.0,1.0,38,0.00,,,0.00,633,Wunderground v.1.15,2013-05-14 23:30:00,
2013-05-14 16:40:00,79.3,51.5,29.95,North,9,0.0,0.0,38,0.00,,,0.00,619,Wunderground v.1.15,2013-05-14 23:40:00,
2013-05-14 16:50:00,79.6,51.8,29.95,NNE,20,0.0,0.0,38,0.00,,,0.00,594,Wunderground v.1.15,2013-05-14 23:50:00,
2013-05-14 17:00:00,79.3,51.5,29.94,NNE,26,0.0,2.0,38,0.00,,,0.00,561,Wunderground v.1.15,2013-05-15 00:00:00,
2013-05-14 17:10:00,78.2,51.9,29.95,NW,323,0.0,3.0,40,0.00,,,0.00,526,Wunderground v.1.15,2013-05-15 00:10:00,
2013-05-14 17:20:00,76.7,51.9,29.95,NE,38,0.0,0.0,42,0.00,,,0.00,42,Wunderground v.1.15,2013-05-15 00:20:00,
2013-05-14 17:30:00,75.5,51.4,29.94,NNE,19,1.0,1.0,43,0.00,,,0.00,42,Wunderground v.1.15,2013-05-15 00:30:00,
2013-05-14 17:40:00,74.4,51.1,29.95,NE,38,1.0,1.0,44,0.00,,,0.00,63,Wunderground v.1.15,2013-05-15 00:40:00,
2013-05-14 17:50:00,73.7,50.4,29.94,NE,38,0.0,0.0,44,0.00,,,0.00,30,Wunderground v.1.15,2013-05-15 00:50:00,
2013-05-14 18:00:00,73.2,50.0,29.94,NNE,26,0.0,0.0,44,0.00,,,0.00,30,Wunderground v.1.15,2013-05-15 01:00:00,
2013-05-14 18:10:00,72.6,50.0,29.94,SSE,163,0.0,0.0,45,0.00,,,0.00,28,Wunderground v.1.15,2013-05-15 01:10:00,
2013-05-14 18:20:00,72.3,49.8,29.94,North,5,0.0,0.0,45,0.00,,,0.00,26,Wunderground v.1.15,2013-05-15 01:20:00,
2013-05-14 18:30:00,71.9,49.4,29.94,NNE,15,0.0,0.0,45,0.00,,,0.00,25,Wunderground v.1.15,2013-05-15 01:30:00,
2013-05-14 18:40:00,71.6,49.1,29.94,WNW,283,0.0,0.0,45,0.00,,,0.00,25,Wunderground v.1.15,2013-05-15 01:40:00,
2013-05-14 18:50:00,71.1,49.8,29.94,North,11,0.0,0.0,47,0.00,,,0.00,23,Wunderground v.1.15,2013-05-15 01:50:00,
2013-05-14 19:00:00,70.4,49.8,29.95,NNE,13,0.0,0.0,48,0.00,,,0.00,21,Wunderground v.1.15,2013-05-15 02:00:00,
2013-05-14 19:10:00,69.7,49.7,29.95,ESE,123,0.0,0.0,49,0.00,,,0.00,19,Wunderground v.1.15,2013-05-15 02:10:00,
2013-05-14 19:20:00,69.0,50.1,29.95,East,85,0.0,0.0,51,0.00,,,0.00,18,Wunderground v.1.15,2013-05-15 02:20:00,
2013-05-14 19:30:00,68.3,50.0,29.95,SW,217,0.0,0.0,52,0.00,,,0.00,16,Wunderground v.1.15,2013-05-15 02:30:00,
2013-05-14 19:40:00,67.1,49.4,29.95,ESE,107,1.0,1.0,53,0.00,,,0.00,12,Wunderground v.1.15,2013-05-15 02:40:00,
2013-05-14 19:50:00,66.6,49.4,29.96,WNW,299,0.0,0.0,54,0.00,,,0.00,9,Wunderground v.1.15,2013-05-15 02:50:00,
2013-05-14 20:00:00,66.0,48.9,29.96,East,91,1.0,5.0,54,0.00,,,0.00,5,Wunderground v.1.15,2013-05-15 03:00:00,
2013-05-14 20:10:00,65.2,49.1,29.97,East,87,0.0,0.0,56,0.00,,,0.00,0,Wunderground v.1.15,2013-05-15 03:10:00,
2013-05-14 20:20:00,64.7,48.6,29.97,East,87,0.0,0.0,56,0.00,,,0.00,0,Wunderground v.1.15,2013-05-15 03:20:00,
2013-05-14 20:30:00,63.6,48.5,29.97,SSE,165,2.0,2.0,58,0.00,,,0.00,0,Wunderground v.1.15,2013-05-15 03:30:00,
2013-05-14 20:40:00,62.5,48.0,29.98,SSE,152,3.0,3.0,59,0.00,,,0.00,0,Wunderground v.1.15,2013-05-15 03:40:00,
2013-05-14 20:50:00,61.4,47.4,29.98,SE,134,1.0,1.0,60,0.00,,,0.00,0,Wunderground v.1.15,2013-05-15 03:50:00,
2013-05-14 21:00:00,60.8,47.3,29.98,SE,132,2.0,2.0,61,0.00,,,0.00,0,Wunderground v.1.15,2013-05-15 04:00:00,
2013-05-14 21:10:00,60.1,47.0,29.98,SE,145,3.0,3.0,62,0.00,,,0.00,0,Wunderground v.1.15,2013-05-15 04:10:00,
2013-05-14 21:20:00,59.4,46.8,29.99,SSE,157,2.0,5.0,63,0.00,,,0.00,0,Wunderground v.1.15,2013-05-15 04:20:00,
2013-05-14 21:30:00,59.0,46.8,29.99,SE,144,3.0,3.0,64,0.00,,,0.00,0,Wunderground v.1.15,2013-05-15 04:30:00,
2013-05-14 21:40:00,58.5,47.2,30.00,SSE,162,2.0,2.0,66,0.00,,,0.00,0,Wunderground v.1.15,2013-05-15 04:40:00,
2013-05-14 21:50:00,58.2,46.9,30.00,SE,138,2.0,2.0,66,0.00,,,0.00,0,Wunderground v.1.15,2013-05-15 04:50:00,
2013-05-14 22:00:00,58.0,46.7,30.00,SSE,164,1.0,1.0,66,0.00,,,0.00,0,Wunderground v.1.15,2013-05-15 05:00:00,
2013-05-14 22:10:00,57.8,46.9,30.01,SE,139,1.0,1.0,67,0.00,,,0.00,0,Wunderground v.1.15,2013-05-15 05:10:00,
2013-05-14 22:20:00,57.4,46.5,30.01,SE,144,1.0,1.0,67,0.00,,,0.00,0,Wunderground v.1.15,2013-05-15 05:20:00,
2013-05-14 22:30:00,57.3,46.8,30.02,ESE,102,0.0,0.0,68,0.00,,,0.00,0,Wunderground v.1.15,2013-05-15 05:30:00,
2013-05-14 22:40:00,57.0,46.5,30.02,ESE,102,0.0,0.0,68,0.00,,,0.00,0,Wunderground v.1.15,2013-05-15 05:40:00,
2013-05-14 22:50:00,56.8,46.3,30.02,ESE,102,0.0,0.0,68,0.00,,,0.00,0,Wunderground v.1.15,2013-05-15 05:50:00,
2013-05-14 23:00:00,56.6,46.2,30.02,ESE,102,0.0,0.0,68,0.00,,,0.00,0,Wunderground v.1.15,2013-05-15 06:00:00,
2013-05-14 23:10:00,56.4,46.4,30.02,ESE,102,0.0,0.0,69,0.00,,,0.00,0,Wunderground v.1.15,2013-05-15 06:10:00,
2013-05-14 23:20:00,56.1,46.1,30.02,South,169,1.0,1.0,69,0.00,,,0.00,0,Wunderground v.1.15,2013-05-15 06:20:00,
2013-05-14 23:30:00,55.9,45.9,30.02,South,169,0.0,0.0,69,0.00,,,0.00,0,Wunderground v.1.15,2013-05-15 06:30:00,
2013-05-14 23:40:00,55.8,46.2,30.02,South,169,0.0,0.0,70,0.00,,,0.00,0,Wunderground v.1.15,2013-05-15 06:40:00,
2013-05-14 23:50:00,55.7,46.1,30.02,South,169,0.0,0.0,70,0.00,,,0.00,0,Wunderground v.1.15,2013-05-15 06:50:00,